Flag for Germany Weather past 2 weeks in Zeitz, Saxony-Anhalt, Germany

Now
62 °F

Passing clouds.


Feels Like: 62 °F
Forecast: 46 / 69 °F
Wind: 2 mph from Northwest

Location: Gera-Leumnitz

Current Time: Aug 21, 2014 at 8:25:06 PM

Latest Report: Aug 21, 2014 at 8:00 PM


Visibility: 44 mi

Pressure: 29.99 "Hg

Humidity: 50%

Dew point: 43 °F

Location of ZeitzLocation

Historic Weather in Zeitz — Graph

°F

Zeitz temperature yesterday

Maximum temperature yesterday: 63 °F (at 5:00 PM)
Minimum temperature yesterday: 46 °F (at 6:00 AM)
Average temperature yesterday: 55 °F

Past Weeks' High & Low Weather Summary

 TemperatureHumidityPressure
High83 °F (Aug 10, 5:00 PM)98% (Aug 8, 6:00 AM)30.06 "Hg (Aug 8, 6:00 AM)
Low46 °F (Aug 20, 6:00 AM)35% (Aug 12, 6:00 PM)29.65 "Hg (Aug 13, 5:00 PM)
Average62 °F72%29.89 "Hg
* Reported Aug 6 7:00 PM — Aug 21 7:00 PM, Zeitz, Weather by CustomWeather, © 2014

Note: Actual official high and low records may vary slightly from our data, if they occured in-between our weather recording intervals... More about our weather records

Advertising

Zeitz weather history for previous 24 hours

 ConditionsComfort  
Time TempWeatherWind HumidityBarometerVisibility
7:00 PM
Aug 21
64 °FSunny.2 mph46%29.99 "Hg43 mi
6:00 PM63 °FPartly sunny.5 mph47%29.99 "Hg43 mi
5:00 PM64 °FScattered clouds.3 mph46%29.99 "Hg37 mi
4:00 PM63 °FPartly sunny.5 mph48%30.00 "Hg37 mi
3:00 PM65 °FPassing clouds.3 mph47%30.01 "Hg37 mi
2:00 PM61 °FPartly sunny.5 mph51%30.02 "Hg34 mi
1:00 PM62 °FPassing clouds.6 mph47%30.02 "Hg34 mi
12:00 PM61 °FPassing clouds.5 mph53%30.03 "Hg31 mi
11:00 AM60 °FPassing clouds.5 mph56%30.03 "Hg25 mi
10:00 AM58 °FPassing clouds.5 mph63%30.02 "Hg28 mi
9:00 AM53 °FPassing clouds.3 mph76%30.03 "Hg22 mi
8:00 AM49 °FPassing clouds.3 mph85%30.03 "Hg19 mi
7:00 AM46 °FPassing clouds.3 mph92%30.03 "Hg9 mi
6:00 AM46 °FPassing clouds.5 mph92%30.03 "Hg8 mi
5:00 AM47 °FFog.3 mph88%30.02 "Hg3 mi
4:00 AM48 °FOvercast.3 mph89%30.02 "Hg5 mi
3:00 AM50 °FOvercast.2 mph88%30.03 "Hg14 mi
2:00 AM52 °FOvercast.1 mph74%30.02 "Hg22 mi
1:00 AM53 °FOvercast.1 mph75%30.02 "Hg25 mi
12:00 AM53 °FOvercast.2 mph78%30.02 "Hg19 mi
11:00 PM
Aug 20
55 °FOvercast.2 mph63%30.01 "Hg34 mi
10:00 PM57 °FOvercast.2 mph59%30.01 "Hg40 mi
9:00 PM58 °FOvercast.1 mph51%29.99 "Hg22 mi
8:00 PM60 °FOvercast.1 mph50%29.98 "Hg43 mi
Weather by CustomWeather, © 2014

See weather overviewHow to use our weather pages